Hill City, KS

6:40 AM CDT on August 25, 2016 (GMT -0500)
Hill City Municipal

Weather History for KHLC - August, 2013

Change the Weather History Date:

Monday, August 26, 2013

  Actual Average Record
Temperature  
Mean Temperature 86 °F 75 °F  
Max Temperature 98 °F 89 °F 108 °F (1936)
Min Temperature 73 °F 61 °F 50 °F (1967)
Cooling Degree Days 20    
Growing Degree Days 35 (Base 50)    
Moisture  
Dew Point 62 °F    
Average Humidity 47    
Maximum Humidity 68    
Minimum Humidity 28    
Precipitation  
Precipitation 0.00 in 0.09 in 0.55 in (2003)
Month to date precipitation 0.73 2.41  
Year to date precipitation 12.91 17.38  
Sea Level Pressure  
Sea Level Pressure 29.98 in    
Wind  
Wind Speed 12 mph (SSW)    
Max Wind Speed 17 mph    
Max Gust Speed 26 mph    
Visibility 10 miles    
Events      
T = Trace of Precipitation, MM = Missing Value Source: NWS Daily Summary

Daily Weather History Graph

Daily Weather History Graph

Search for Another Location

Airport or City:

Trip Planner

Search our weather history database for the weather conditions in past years. The results will help you decide how hot, cold, wet, or windy it might be!

Date:

Astronomy

Aug. 26, 2013 Rise Set
Actual Time 7:02 AM CDT 8:18 PM CDT
Civil Twilight 6:34 AM CDT 8:46 PM CDT
Nautical Twilight 6:01 AM CDT 9:19 PM CDT
Astronomical Twilight 5:26 AM CDT 9:54 PM CDT
Moon 11:33 PM CDT (8/26) 1:03 PM CDT (8/26)
Length of Visible Light 14h 12m
Length of Day
13h 16m
Waning Gibbous, 66% of the Moon is Illuminated
Aug 26
Waning Gibbous
Aug 28
Last Quarter
Sep 5
New
Sep 12
First Quarter
Sep 19
Full

Hourly Weather History & Observations

Time (CDT) Temp. Heat Index Dew Point Humidity Pressure Visibility Wind Dir Wind Speed Gust Speed Precip Events Conditions
12:53 AM 80.1 °F 81.5 °F 63.0 °F 56% 30.02 in 10.0 mi South 11.5 mph - N/A   Clear
1:53 AM 79.0 °F - 63.0 °F 58% 30.02 in 10.0 mi South 15.0 mph 25.3 mph N/A   Clear
2:53 AM 78.1 °F - 64.0 °F 62% 30.02 in 10.0 mi South 13.8 mph 19.6 mph N/A   Clear
3:53 AM 77.0 °F - 64.0 °F 64% 30.02 in 10.0 mi SSW 10.4 mph - N/A   Clear
4:53 AM 75.9 °F - 63.0 °F 64% 30.02 in 10.0 mi SSW 8.1 mph 16.1 mph N/A   Clear
5:53 AM 75.0 °F - 63.0 °F 66% 30.03 in 10.0 mi Variable 3.5 mph - N/A   Clear
6:53 AM 73.9 °F - 63.0 °F 68% 30.03 in 10.0 mi Variable 3.5 mph - N/A   Clear
7:53 AM 75.0 °F - 63.0 °F 66% 30.03 in 10.0 mi SSW 4.6 mph - N/A   Clear
8:53 AM 78.1 °F - 63.0 °F 60% 30.02 in 10.0 mi SSW 11.5 mph 20.7 mph N/A   Clear
9:53 AM 84.0 °F 84.9 °F 63.0 °F 49% 30.01 in 10.0 mi SW 12.7 mph 26.5 mph N/A   Clear
10:53 AM 88.0 °F 89.3 °F 64.0 °F 45% 30.00 in 10.0 mi SSW 15.0 mph 23.0 mph N/A   Clear
11:53 AM 91.0 °F 92.6 °F 64.0 °F 41% 30.00 in 10.0 mi SW 15.0 mph 24.2 mph N/A   Clear
12:53 PM 93.9 °F 95.6 °F 64.0 °F 37% 29.98 in 10.0 mi SSW 13.8 mph 20.7 mph N/A   Clear
1:53 PM 96.1 °F 96.9 °F 62.1 °F 32% 29.96 in 10.0 mi SSW 12.7 mph 24.2 mph N/A   Clear
2:53 PM 97.0 °F 97.4 °F 61.0 °F 30% 29.95 in 10.0 mi SSW 12.7 mph 24.2 mph N/A   Clear
3:53 PM 97.0 °F 96.9 °F 60.1 °F 29% 29.93 in 10.0 mi South 17.3 mph 26.5 mph N/A   Clear
4:53 PM 97.0 °F 96.5 °F 59.0 °F 28% 29.92 in 10.0 mi South 17.3 mph 24.2 mph N/A   Clear
5:53 PM 96.1 °F 95.2 °F 57.9 °F 28% 29.92 in 10.0 mi South 13.8 mph 21.9 mph N/A   Clear
6:53 PM 93.9 °F 93.6 °F 60.1 °F 32% 29.91 in 10.0 mi South 13.8 mph 20.7 mph N/A   Clear
7:53 PM 91.0 °F 90.0 °F 57.9 °F 33% 29.92 in 10.0 mi South 12.7 mph 18.4 mph N/A   Clear
8:53 PM 87.1 °F 86.1 °F 57.9 °F 37% 29.92 in 10.0 mi South 10.4 mph - N/A   Clear
9:53 PM 84.9 °F 85.0 °F 61.0 °F 44% 29.93 in 10.0 mi South 13.8 mph 20.7 mph N/A   Clear
10:53 PM 82.9 °F 83.2 °F 60.1 °F 46% 29.94 in 10.0 mi South 13.8 mph 20.7 mph N/A   Clear
11:53 PM 81.0 °F 81.6 °F 60.1 °F 49% 29.94 in 10.0 mi SSW 11.5 mph 18.4 mph N/A   Clear